Погода в Жалтыре

Погода в Жалтыре : погода сейчас, прогноз погоды и архив. Всё, что Вы хотите узнать о погоде в Жалтыре!

Поиск расширенной информации на нашем сайте:

Другие новости

Новости СМИ2

Главная страница сайта

Новости сайта

03.07.2017

Напоминаем, что на нашем специализированном сайте Метеоцентр.Азия вы можете получить высокодетализированные автоматические прогнозы погоды по пунктам России, СНГ и мира в авиационном формате (включающие направление и скорость ветра, видимость, явления погоды, количество и форму облачности, нижнюю и верхнюю границу облачности).

Рекомендуем: традиционные стили ушу

Погода в Жалтыре - сегодня

Время (UTC), дата Ветер
(°,м/с) 
Видим.   Явления Облачность Т
(°С)
Тd
(°С)
f(%) Тe
(°С)
Pmin
(гПа)
dP
(гПа)
Po
(мм)
O2
(г/м3)
Тmin Tmax R s Состояние
почвы
03 19.07.17 340 (С) 4000 м    ясно 
+16.2 +13 81 +23  1015.4  1.1  735  277           
06 19.07.17 340 (С) 4000 м    6/6 600 м 
[Cu hum]
+22.1 +12.9 56 +28  1015.1  0.4  735  272  +11.6         
09 19.07.17 350 (С) 4000 м    6/6 600 м кучево-дожд. 
[Cb cap]
+23.7 +11.6 47 +27  1014.6  -0.3  735  270           
12 19.07.17 280 (З) 4000 м    8/8 600 м кучево-дожд. 
[Cb calv]
+24.5 +12.4 47 +29  1013.9  -0.6  734  269           
15 19.07.17 320 (СЗ) 4000 м    4/3 600 м средняя 
[Cu hum|Ac cuf]
+23.6 +14.8 58 +32  1014.3  0.3  735  269    +26.5       
18 19.07.17 тихо ()   н/о    ясно 
+16.8 +14.2 85 +25  1015.6  0.5  735  276    +26.5       
21 19.07.17 тихо ()   н/о    ясно 
+14.4 +12.8 90 +20  1015.1  -0.8  734  279           
00 20.07.17 тихо ()   4000 м    ясно 
+12.8 +12.1 96 +17  1015.5  0.2  735  280           
03 20.07.17 тихо ()   4000 м    3/0 средняя 
[Ac cast]
+18.6 +14.5 77 +27  1015.3  0.5  735  274           
06 20.07.17 280 (З) 4000 м    8/8 600 м кучево-дожд. 
[Cb calv]
+24.7 +12.7 47 +30  1013.8  -0.8  734  269  +12.2         
09 20.07.17 260 (З) 4000 м  в посл. час ливневой дождь  8/6 600 м кучево-дожд., верхняя 
[Cb cap|Ci ing]
+23.7 +13.1 51 +30  1013.2  -0.7  734  270           
18 20.07.17 190 (Ю) н/о    3/3 600 м 
[Sc diur, vesp]
+17.9 +13.7 76 +26  1012.8  -0.2  733  274    +27.1  0.0     
21 20.07.17 130 (ЮВ) н/о    ясно 
+16.8 +12.5 76 +23  1012.3  -0.6  733  276           
00 21.07.17 150 (ЮВ) 4000 м    8/4 600 м средняя, верхняя 
[Cu med, cong|Ac cuf|Ci fib]
+14.9 +11.8 82 +20  1012.9  0.3  733  278           
03 21.07.17 190 (Ю) 4000 м    8/5 600 м кучево-дожд., верхняя 
[Cb cap|Ci fib]
+18.5 +14.6 78 +28  1013.1  0.7  733  274           
06 21.07.17 230 (ЮЗ) 4000 м    10/8 600 м кучево-дожд., верхняя 
[Cb cap|Ci fib]
+24.5 +14.1 52 +32  1012.2  -0.2  733  268  +14.2         
09 21.07.17 240 (ЮЗ) 4000 м  {гроза, ливн. осадки}  10/10 600 м кучево-дожд. 
[Cb cap]
+19.5 +14.4 72 +28  1012.9  0.1  733  273           
12 21.07.17 290 (З) 4000 м  {гроза, ливн. осадки}  10/10 600 м кучево-дожд. 
[Cb cap]
+21.5 +15.7 70 +32  1012.6  -0.1  733  271           
18 21.07.17 тихо ()   н/о    ясно 
+14.6 +12.6 88 +20  1014.2  0.9  734  278    +25.9  0.0     
21 21.07.17 тихо ()   н/о    ясно 
+11.4 +10.2 92 +13  1014.4  -0.2  734  282           
00 22.07.17 тихо ()   2000 м  дымка  ясно 
+10 +9.2 95 +11  1015.1  0.5  734  284           
06 22.07.17 070 (В) 4000 м  {туман}  3/1 600 м верхняя 
[Cu hum|Ci fib]
+24.3 +11.5 45 +28  1014  0.1  735  270  +10         
09 22.07.17 250 (З) 4000 м    8/3 600 м верхняя 
[Cu med, cong|Ci fib]
+25.6 +11.7 42 +30  1013.4  -0.5  734  268           
12 22.07.17 320 (СЗ) 4000 м    9/9 600 м кучево-дожд. 
[Cb cap]
+25.3 +12.2 44 +30  1012.8  -0.6  734  268           
15 22.07.17 060 (СВ) 4000 м    10/10 600 м кучево-дожд. 
[Cb cap]
+23.3 +14.2 57 +31  1012.4  -0.6  733  269    +27.2       
Время (UTC), дата Ветер
(°,м/с) 
Видим.   Явления Облачность Т
(°С)
Тd
(°С)
f(%) Тe
(°С)
Pmin
(гПа)
dP
(гПа)
Po
(мм)
O2
(г/м3)
Тmin Tmax R s Состояние
почвы

Для получения пояснительной информации подведите курсор к названию столбца.

ПОГОДА в Жалтыре - архив

Всё, что Вы хотите узнать о погоде в Жалтыре - удобно и подробно!

Выберите нужную дату (начиная с 1 января 2015* года) и нажмите кнопку "Найти".
Будут отображены архивные сводки погоды по пункту Жалтыр, начиная с указанной даты.


Отображать данные в формате CSV (для использования в таблицах Excel)


Внимание! Наш архив погоды предназначен исключительно для личного некоммерческого использования в познавательных целях. Если Вам необходимы официальные справки о состоянии погоды (для производственных, юридических, коммерческих и т.п. целей), обращайтесь в органы Росгидромета.

*Примечание: данная дата относится к архиву по метеостанциям СССР (Россия, СНГ, Балтия).
Архив по метеостанциям Зарубежной Европы и Азии (кроме Китая) хранится 10 дней, по другим регионам земного шара (Китай, Африка, Америка, Австралия, Океания) - 1 день.

Жалтыр - район местоположения метеостанции


Название, широта, долгота, высота метеостанции:
Жалтыр 51.6°ш. 69.8°д. 620 м над ур. моря [Казахстан]

Дополнительная информация

В oтличие oт бoльшинства пoгoдных сайтoв мы публикуем пoдрoбную метеoинфoрмацию в детальнoм прoфессиoнальнoм фoрмате.

Характеристики температуры и влажнoсти вoздуха измеряются на высoте 2 м в тени вдали oт зданий и деревьев.
Скoрoсть ветра измеряется на высoте 10 м (на урoвне рoста челoвека скoрoсть ветра ниже в 1.5-2 раза). Если метеoстанция нахoдится в гoрoде или в лесу, тo скoрoсть ветра занижена на 2-4 м/с пo сравнению с oткрытым местoм. Скoрoсть ветра над акватoриями крупных рек и oзёр, а также на вершинах хoлмoв на 2-5 м/с выше, чем в oбычных услoвиях.
Атмoсфернoе давление в разных тoчках местнoсти мoжет значительнo oтличаться oт давления на метеoстанции, в зависимoсти oт услoвий рельефа (при пoдъёме на 10 м давление пoнижается примернo на 1 мм рт.ст.).